Regional Weather Roundup
Issued by NWS

Home | Current Version | Previous Version | Text Only | Print | Product List | Glossary On
Versions: 1 2 3 4 5 6 7 8 9 10 11 12 13 14 15 16 17 18 19 20 21 22 23 24 25 26 27 28 29 30 31 32 33 34 35 36 37 38 39 40 41 42 43 44 45 46 47 48 49 50
000
ASUS44 KJAN 252003
RWRMS

MISSISSIPPI HOURLY WEATHER ROUNDUP
NATIONAL WEATHER SERVICE JACKSON MS
300 PM CDT FRI JUL 25 2014

NOTE: "FAIR: INDICATES FEW OR NO CLOUDS BELOW 12,000 FEET WITH NO
SIGNIFICANT WEATHER AND/OR OBSTRUCTIONS TO VISIBILITY.

MSZ001>002-007>008-010>013-018>021-025>028-034>036-252100-
NORTHWEST MISSISSIPPI

CITY           SKY/WX    TMP DP  RH WIND       PRES   REMARKS
CLARKSDALE     FAIR      82  68  61 CALM      30.03F
CLEVELAND      FAIR      83  71  65 N7        30.02S
GREENWOOD      SUNNY     86  64  47 N3        30.01F
GREENVILLE     SUNNY     88  66  48 N7        30.01S HX  90
GRENADA        FAIR      84  61  45 NW6       30.02F
OLIVE BRANCH   MOSUNNY   82  63  51 CALM      30.03F
OXFORD         FAIR      81  63  54 NW7       30.05S
TUNICA         CLEAR     82  61  47 CALM      30.03S
$$

MSZ003>006-009-014>017-022>024-029>033-037>039-252100-
NORTHEAST MISSISSIPPI

CITY           SKY/WX    TMP DP  RH WIND       PRES   REMARKS
BELMONT        FAIR      82  64  54 SW5       30.02F
COLUMBUS AFB   MOSUNNY   85  60  42 NW9       30.03R
CORINTH        FAIR      82  59  44 W6        30.03S
GOLDN TRIANGLE MOSUNNY   86  68  54 N9        30.02S
STARKVILLE     FAIR      82  66  57 NW3       30.01F
TUPELO         MOSUNNY   84  63  49 NE6       30.01F
$$

MSZ040-058-252100-
CENTRAL MISSISSIPPI

CITY           SKY/WX    TMP DP  RH WIND       PRES   REMARKS
JACKSON INTL   PTSUNNY   89  71  55 NW8       30.00F HX  95
JACKSON HAWKNS MOSUNNY   89  70  53 VRB7      30.01F HX  94
MERIDIAN KEY   MOSUNNY   90  67  46 CALM      29.99S HX  93
MERIDIAN NAS   PTSUNNY   90  69  50 VRB7      29.99F HX  94
RAYMOND        FAIR      90  82  79 N7        30.00F HX 111
VICKSBURG      MOSUNNY   90  73  57 VRB6      30.00F HX  98
$$

MSZ059>079-252100-
SOUTH MISSISSIPPI

CITY           SKY/WX    TMP DP  RH WIND       PRES   REMARKS
BROOKHAVEN     FAIR      90  73  58 W6        30.02F HX  98
COLUMBIA       FAIR      91  73  55 NW7       29.98F HX 100
HATTIESBURG    MOSUNNY   92  72  51 NW3       29.97F HX  99
MCCOMB         SUNNY     91  71  51 W5        30.00F HX  97
NATCHEZ        MOSUNNY   90  73  58 SW5       30.00F HX  98
PINE BELT      MOSUNNY   91  72  52 NW5       30.00F HX  98
$$

MSZ080>082-252100-
COASTAL MISSISSIPPI

CITY           SKY/WX    TMP DP  RH WIND       PRES   REMARKS
BAY ST LOUIS   MOSUNNY  N/A N/A N/A S8        29.98F
BILOXI         MOSUNNY   87  77  72 SW14      29.98F HX  98
PASCAGOULA     HVY RAIN  75  72  90 S8        29.99S FOG
GULFPORT       CLOUDY    92  75  57 SW9       29.97F HX 103
$$


USA.gov is the U.S. government's official web portal to all federal, state and local government web resources and services.